Location: Belloy
(55.7522°N, 118.2333°W)
Time: 23:53:19
(UTC+00:00)

Envisat - Pass Details

Date: 03 December 2021
Orbit: 764 x 766 km, 98.2° (Epoch: 27 January)

Event Time Altitude Azimuth Distance (km) Brightness Sun altitude
Rises 11:08:21 0° 29° (NNE) 3,248 6.8 -39.6°
Reaches altitude 10° 11:12:51 10° 66° (ENE) 2,314 6.2 -39.0°
Maximum altitude 11:14:04 11° 80° (E) 2,258 6.1 -38.8°
Drops below altitude 10° 11:15:16 10° 94° (E) 2,309 6.1 -38.7°
Sets 11:19:44 0° 131° (SE) 3,227 6.6 -38.1°
